Vorticity
4 2 1 10 -4 5 8 1 8 2 -3 8 49 18 -1 -0 9 1 22 4 5 26 6 7 -1 -4 2 4 5 13 11 10 12 7 6 6 4 11 5 2 9 8 5 2
0 10 3 3 16 4 0 7 9 13 11 5 35 42 22 2 -3 13 3 -14 10 40 3 -6 7 0 5 -4 5 13 13 9 9 4 10 2 10 9 11 9 6 5 10 4
7 18 23 7 -2 3 4 4 -3 3 -12 -17 33 48 7 15 -4 12 0 10 6 11 24 3 -0 1 -9 3 8 13 13 7 9 3 6 2 4 2 -1 11 3 3 5 6
11 23 -1 6 2 10 1 13 1 5 15 20 18 24 5 5 13 1 5 -8 47 -1 34 2 -0 3 8 6 -0 11 12 11 7 4 4 5 11 5 11 8 2 4 4 5
10 2 26 9 9 14 3 10 3 3 -3 9 28 10 14 47 -20 -7 4 12 -8 28 5 30 7 -3 5 2 4 7 10 13 9 5 4 5 8 10 10 -0 8 5 7 4
26 -2 4 31 16 11 4 19 1 12 8 38 18 17 25 7 22 31 -4 11 10 25 -9 15 4 -3 10 15 6 8 12 11 8 7 5 3 9 12 -4 4 5 4 5 5
11 18 5 10 5 10 19 4 18 25 27 -9 -23 29 6 12 10 29 16 0 26 17 11 5 2 21 9 9 16 14 12 9 10 6 6 5 5 8 7 6 10 7 3 6
18 21 39 3 16 2 5 28 -25 9 8 -10 11 16 -14 11 13 5 8 37 -11 11 1 9 2 -12 7 -8 11 16 17 8 8 8 6 6 5 5 5 8 6 9 5 7
14 11 -2 4 18 27 19 6 10 20 13 14 -1 -3 22 12 38 37 2 13 12 10 15 6 10 -4 6 15 1 16 17 11 10 7 8 5 6 5 5 4 6 8 11 6
13 17 17 -5 13 13 21 11 29 3 7 7 17 3 -5 -25 -6 -22 87 10 14 1 21 13 15 6 8 7 21 -1 5 13 7 9 6 9 6 3 5 4 6 4 9 5
16 -11 -5 -26 -16 -6 17 23 20 20 6 5 6 30 36 -4 -0 27 7 17 51 2 11 9 -4 -0 19 -5 12 13 11 18 15 8 6 6 9 6 3 4 4 6 6 5
20 8 8 0 0 6 12 -14 -2 12 -24 14 8 3 -0 30 26 5 51 29 40 17 13 6 -30 20 9 -10 14 4 12 16 14 10 10 6 7 8 6 5 4 5 4 5
11 10 20 40 41 13 -9 -8 -1 39 8 14 22 -3 -30 -19 -8 18 34 13 39 36 25 3 -35 -14 17 72 5 7 5 13 9 9 12 12 7 9 8 4 6 5 4 3
16 9 3 -6 -13 -10 -4 -2 -7 -9 38 -25 33 40 -7 14 11 5 12 15 23 43 25 7 -7 -19 -8 22 20 -2 -12 5 2 10 6 14 10 7 9 7 5 5 6 5
16 17 13 16 12 20 17 10 12 1 2 21 -4 1 18 -1 1 -8 7 17 49 24 30 -0 3 -14 15 6 12 33 3 2 -3 11 9 10 14 12 9 10 7 5 6 7
10 7 6 4 1 0 1 9 7 6 1 11 -1 19 -5 15 13 2 9 7 25 29 23 20 14 15 -26 17 44 19 11 12 -4 11 7 9 20 12 15 10 10 8 6 8
1 4 3 28 6 10 49 17 14 20 -0 5 16 11 3 10 16 15 5 -1 10 18 51 21 18 37 -21 3 -14 14 5 11 6 0 4 11 9 14 14 15 14 12 8 7
-0 1 -0 -5 7 26 9 21 20 5 24 12 15 6 9 12 11 8 6 10 -5 4 11 -11 20 22 69 26 8 38 11 -10 15 -3 -2 30 3 12 12 14 21 11 14 8
16 5 2 10 8 -19 10 22 26 10 -0 -0 18 17 -3 19 13 8 11 14 8 12 5 13 12 19 6 18 10 -12 -6 31 11 12 8 -7 1 5 16 12 7 21 14 14
1 35 18 -5 -0 -1 18 -14 3 15 11 9 -14 17 11 -4 31 12 -0 6 13 -1 5 7 4 -1 14 9 24 34 46 7 14 -4 24 7 6 16 4 13 11 5 13 18
16 18 18 25 6 20 7 -1 -9 17 -1 9 10 10 -2 -4 21 10 7 7 9 14 -0 -0 0 6 -2 2 8 22 27 18 61 -5 32 2 5 11 17 24 8 16 6 3
18 12 9 18 21 23 16 11 6 1 5 12 8 10 11 1 -1 11 7 -1 10 8 22 2 19 3 8 2 2 8 32 55 -14 -17 66 -13 -1 -7 1 9 10 17 19 5
12 17 15 9 -13 -13 -15 -5 9 19 7 2 2 6 7 8 -0 6 4 17 4 6 11 19 14 -21 23 8 -9 8 -0 40 26 -2 10 4 -2 11 -5 7 5 4 22 13
-1 -6 10 32 22 22 19 10 6 -3 1 -2 5 16 6 1 5 5 6 7 18 9 -1 13 16 34 -9 7 19 -16 21 -1 38 13 26 -9 -5 3 11 -1 7 1 15 18
15 8 -6 -7 8 48 43 28 15 17 30 29 18 12 6 9 10 9 14 1 9 13 13 4 10 -6 34 6 2 37 -30 26 13 54 36 19 8 3 6 5 4 15 7 12
4 10 8 -10 -10 11 0 14 28 19 13 19 27 28 25 30 18 3 5 7 7 16 13 12 3 12 0 12 24 13 -14 -8 24 19 7 19 10 8 4 6 15 -7 10 12
Height
3134 3137 3138 3142 3145 3148 3150 3153 3152 3151 3157 3161 3159 3157 3157 3160 3164 3166 3169 3175 3179 3182 3187 3191 3193 3197 3201 3204 3206 3208 3211 3213 3214 3216 3218 3221 3224 3227 3228 3229 3230 3230 3230 3232
3134 3133 3139 3142 3145 3147 3149 3151 3151 3149 3155 3156 3152 3153 3158 3159 3163 3165 3166 3170 3177 3181 3185 3189 3191 3195 3199 3202 3205 3208 3210 3212 3214 3217 3220 3221 3224 3227 3228 3229 3230 3230 3231 3232
3131 3134 3137 3140 3142 3145 3146 3148 3148 3150 3153 3153 3151 3154 3156 3159 3163 3164 3166 3168 3170 3173 3180 3185 3189 3192 3196 3199 3204 3207 3210 3212 3214 3216 3219 3220 3222 3225 3227 3228 3230 3231 3233 3233
3130 3132 3134 3137 3139 3143 3143 3144 3146 3148 3152 3151 3152 3156 3159 3158 3160 3160 3160 3164 3165 3169 3176 3183 3185 3189 3193 3197 3202 3206 3209 3212 3213 3215 3217 3220 3222 3224 3227 3230 3230 3231 3233 3233
3128 3129 3132 3134 3136 3140 3140 3142 3144 3145 3147 3150 3151 3153 3153 3154 3155 3153 3155 3162 3162 3164 3170 3176 3180 3185 3191 3196 3199 3203 3207 3210 3212 3214 3216 3219 3222 3225 3226 3228 3230 3231 3233 3233
3124 3127 3129 3131 3133 3136 3137 3140 3141 3142 3143 3145 3148 3151 3149 3149 3147 3150 3153 3155 3159 3162 3166 3172 3176 3182 3187 3191 3195 3199 3203 3207 3210 3212 3215 3218 3222 3224 3226 3227 3230 3230 3231 3233
3122 3124 3127 3129 3130 3132 3134 3137 3139 3142 3142 3142 3144 3148 3147 3148 3148 3148 3149 3152 3156 3161 3165 3168 3171 3174 3180 3185 3189 3194 3199 3202 3206 3210 3212 3216 3219 3222 3225 3227 3229 3231 3231 3233
3120 3123 3123 3124 3126 3129 3131 3133 3136 3142 3142 3140 3140 3141 3144 3147 3147 3147 3148 3149 3152 3154 3158 3164 3167 3170 3175 3180 3185 3190 3195 3199 3202 3206 3210 3213 3217 3219 3223 3226 3229 3230 3231 3233
3118 3120 3121 3124 3125 3125 3128 3132 3135 3135 3137 3140 3141 3140 3140 3142 3141 3142 3143 3145 3146 3148 3152 3159 3163 3165 3169 3175 3180 3186 3191 3195 3198 3202 3207 3210 3214 3216 3219 3223 3226 3228 3230 3232
3118 3118 3119 3123 3124 3125 3127 3130 3132 3132 3138 3142 3140 3141 3139 3140 3137 3137 3135 3140 3142 3145 3146 3152 3158 3161 3163 3170 3174 3178 3185 3190 3195 3198 3202 3206 3210 3214 3217 3220 3223 3226 3228 3229
3119 3120 3119 3122 3124 3127 3128 3129 3131 3132 3134 3137 3142 3142 3146 3141 3138 3134 3133 3135 3137 3141 3143 3147 3152 3157 3161 3166 3172 3173 3176 3183 3189 3193 3197 3202 3206 3209 3213 3216 3220 3223 3226 3228
3119 3120 3118 3118 3123 3126 3130 3132 3133 3135 3134 3135 3137 3143 3142 3139 3136 3131 3127 3126 3127 3135 3140 3148 3153 3155 3158 3160 3166 3170 3173 3177 3183 3189 3193 3196 3201 3206 3208 3212 3216 3220 3222 3224
3119 3120 3121 3117 3122 3124 3126 3130 3135 3135 3134 3134 3136 3139 3137 3135 3133 3129 3125 3120 3121 3125 3135 3142 3151 3154 3151 3151 3158 3164 3169 3173 3179 3183 3187 3191 3195 3200 3203 3207 3212 3216 3218 3220
3118 3121 3124 3126 3128 3128 3125 3128 3131 3134 3134 3133 3135 3132 3133 3133 3129 3128 3123 3120 3117 3121 3131 3138 3142 3148 3147 3145 3152 3158 3164 3169 3173 3180 3181 3186 3190 3194 3199 3203 3206 3210 3213 3215
3117 3120 3122 3123 3124 3124 3124 3123 3126 3129 3132 3134 3133 3133 3135 3132 3130 3128 3126 3121 3117 3116 3123 3128 3134 3140 3142 3142 3145 3151 3157 3161 3167 3174 3177 3178 3185 3189 3193 3196 3199 3203 3206 3209
3116 3119 3120 3121 3123 3123 3122 3122 3123 3124 3127 3130 3130 3130 3128 3131 3126 3127 3126 3123 3124 3121 3120 3121 3127 3133 3138 3136 3139 3143 3147 3152 3158 3167 3170 3173 3178 3182 3186 3190 3193 3196 3199 3202
3116 3117 3118 3118 3120 3120 3118 3117 3120 3120 3124 3122 3123 3124 3121 3126 3121 3123 3123 3121 3121 3124 3122 3125 3124 3126 3129 3130 3132 3135 3141 3147 3153 3158 3163 3166 3169 3175 3179 3183 3187 3189 3192 3195
3113 3115 3116 3115 3117 3117 3110 3113 3116 3118 3114 3115 3118 3119 3117 3119 3117 3118 3118 3119 3117 3117 3120 3123 3122 3119 3118 3121 3127 3130 3136 3143 3148 3153 3158 3162 3162 3166 3174 3176 3180 3183 3185 3187
3110 3111 3113 3112 3112 3109 3107 3109 3111 3111 3111 3111 3112 3113 3111 3111 3115 3115 3115 3114 3114 3112 3114 3116 3117 3117 3116 3117 3121 3126 3131 3133 3141 3145 3149 3151 3154 3160 3165 3169 3173 3178 3180 3181
3107 3107 3109 3109 3110 3107 3103 3104 3105 3106 3104 3105 3106 3107 3105 3105 3109 3110 3109 3109 3110 3110 3112 3114 3117 3118 3117 3118 3119 3121 3124 3132 3136 3138 3143 3144 3148 3153 3158 3163 3166 3171 3173 3176
3103 3103 3103 3102 3103 3100 3096 3099 3100 3102 3103 3098 3099 3101 3100 3098 3101 3103 3102 3103 3105 3106 3107 3109 3112 3113 3114 3115 3114 3117 3118 3122 3125 3133 3137 3140 3143 3146 3149 3156 3160 3163 3167 3169
3101 3101 3100 3099 3097 3095 3091 3092 3095 3091 3090 3091 3091 3092 3092 3091 3093 3097 3096 3096 3097 3099 3101 3102 3104 3107 3108 3110 3112 3110 3112 3117 3121 3126 3131 3131 3135 3139 3142 3146 3151 3153 3157 3161
3098 3098 3097 3097 3092 3087 3086 3086 3084 3083 3084 3084 3082 3083 3082 3081 3083 3086 3089 3090 3089 3093 3094 3095 3096 3098 3101 3102 3104 3108 3111 3112 3114 3120 3122 3125 3129 3133 3135 3138 3142 3143 3147 3151
3095 3093 3091 3088 3084 3080 3078 3078 3078 3077 3075 3075 3074 3073 3072 3071 3073 3075 3076 3081 3082 3082 3085 3085 3090 3089 3091 3099 3099 3102 3104 3107 3110 3112 3116 3120 3124 3124 3127 3130 3133 3135 3138 3142
3091 3089 3087 3085 3081 3076 3073 3071 3069 3068 3066 3063 3062 3060 3059 3058 3062 3064 3066 3068 3072 3074 3076 3078 3082 3088 3087 3091 3096 3099 3099 3100 3102 3104 3106 3111 3115 3116 3118 3121 3125 3129 3130 3133
3086 3085 3083 3080 3077 3074 3070 3066 3062 3059 3057 3053 3048 3045 3044 3043 3048 3052 3055 3057 3059 3062 3067 3070 3072 3076 3079 3083 3084 3090 3090 3093 3094 3095 3097 3100 3103 3104 3109 3114 3116 3120 3123 3127